User: anonymous   Login
Location: Unspecified
(0.0000°N, 0.0000°E)
Time: 17:36:28
(UTC+00:00)
Language:

USA 148 - Orbit

View from above orbital plane
View from above orbital plane
View from above satellite
View from above satellite

Ground track
Ground track

The orbit data is extracted from the following two-line orbital elements,

1 26052U 00001A   20049.20945267  .00000026  00000-0  00000+0 0  9993
2 26052   8.2292  47.3206 0002874 332.0281  24.0038  1.00276612  8440
Epoch (UTC): 18 February 2020 05:01:36
Eccentricity: 0.0002874
inclination: 8.2292°
perigee height: 35773 km
apogee height: 35797 km
right ascension of ascending node: 47.3206°
argument of perigee: 332.0281°
revolutions per day: 1.00276612
mean anomaly at epoch: 24.0038°
orbit number at epoch: 844

The dashed part of the orbit path shows where the satellite is in the earth's shadow,  

DLR